[[{"header":{"parameterUnit":"m.s-1","parameterCategory":1,"la1":30.2991,"la2":30.254,"lo1":-89.0895,"lo2":-89.0444,"dy":0.0017,"dx":0.0017,"nx":28,"ny":28,"refTime":"2023-10-30T21:00:00:Z","depth":0,"parameterNumber":2,"parameterNumberName":"U-component_of_WINDS"},"data":[0,0,0,0,0,0,0,0,0,0,0,0,0,0,0,0,0,0,0,0,0,0,0,0,0,0,0,0,0,0,0,0,0,0,0,0,0,0,0,0,0,0,0,0,0,0,0,0,0,0,0,0,0,0,0,0,0,0,-0.0778,-0.0779,0,-0.0839,-0.0839,-0.084,-0.0845,-0.0845,-0.0844,-0.0843,-0.0906,-0.0908,-0.091,0,0,0,0,0,0,0,0,0,0,0,0,0,-0.0666,-0.0668,-0.0778,-0.0779,-0.078,-0.0838,-0.0839,-0.084,-0.0845,-0.0845,-0.0844,-0.0843,-0.0905,-0.0907,-0.091,0,0,0,0,0,0,0,0,0,0,0,0,0,-0.0719,-0.0669,-0.0778,-0.0789,-0.0791,-0.0838,-0.0839,-0.084,-0.0846,-0.0845,-0.0844,-0.0843,-0.0904,-0.0907,-0.0911,-0.0951,0,0,-0.0921,-0.0922,0,0,0,0,0,0,0,0,-0.0716,-0.0724,-0.0787,-0.0789,-0.079,-0.0833,-0.0823,-0.0877,-0.0846,-0.0825,-0.0843,-0.0842,-0.0882,-0.0887,-0.0901,-0.0954,-0.0957,-0.0921,-0.0923,-0.0925,-0.0926,0,0,0,0,0,0,0,-0.0713,-0.0721,-0.0802,-0.0788,-0.079,-0.0791,-0.0798,-0.0833,-0.0858,-0.0827,-0.0827,-0.0834,-0.0883,-0.0898,-0.0902,-0.0957,-0.0921,-0.0924,-0.0926,-0.0928,-0.1045,-0.1046,0,0,0,0,0,0,-0.0707,-0.0718,-0.08,-0.0804,-0.075,-0.0794,-0.0801,-0.0821,-0.0858,-0.0863,-0.0835,-0.0834,-0.0892,-0.0898,-0.0905,-0.0954,-0.0925,-0.0928,-0.093,-0.1044,-0.1045,-0.1047,0,0,0,0,0,0,-0.0704,-0.0714,-0.0798,-0.0761,-0.0772,-0.0797,-0.0819,-0.0822,-0.0837,-0.0864,-0.0869,-0.0845,-0.0892,-0.09,-0.0939,-0.0956,-0.0929,-0.0933,-0.1043,-0.1044,-0.1046,-0.1053,0,0,0,0,0,0,-0.0701,-0.0713,-0.0729,-0.0761,-0.0774,-0.0832,-0.082,-0.0824,-0.0843,-0.0842,-0.0875,-0.088,-0.0892,-0.0934,-0.0942,-0.0961,-0.0935,-0.1041,-0.1043,-0.1045,-0.1052,-0.1055,-0.1058,0,0,0,0,0,-0.0697,-0.0729,-0.073,-0.074,-0.0794,-0.0833,-0.084,-0.0853,-0.0844,-0.086,-0.0877,-0.0879,-0.0953,-0.0938,-0.0948,-0.0967,-0.104,-0.1043,-0.1045,-0.105,-0.1054,-0.1058,0,0,0,0,0,0,-0.0699,-0.0734,-0.0735,-0.0779,-0.0802,-0.0833,-0.0854,-0.0857,-0.0884,-0.0883,-0.0898,-0.0905,-0.0944,-0.0959,-0.0942,-0.1007,-0.0996,-0.1,-0.0996,-0.1,-0.1003,-0.0999,-0.0938,0,0,0,0,0,-0.0705,-0.0733,-0.0761,-0.0797,-0.0809,-0.0829,-0.0847,-0.0854,-0.088,-0.089,-0.0911,-0.0935,-0.0964,-0.0983,-0.1011,-0.1053,-0.106,-0.1071,-0.1074,-0.1076,-0.1081,-0.1104,-0.1109,-0.1055,-0.1055,-0.1055,0,0,-0.0716,-0.0739,-0.0756,-0.0798,-0.0818,-0.0846,-0.0838,-0.0869,-0.0891,-0.0895,-0.0934,-0.0949,-0.0977,-0.1018,-0.1037,-0.1032,-0.1097,-0.108,-0.1081,-0.1084,-0.1107,-0.1112,-0.1116,-0.1056,-0.1056,-0.1056,0,0,-0.0753,-0.0772,-0.0804,-0.0823,-0.0853,-0.0866,-0.0873,-0.0903,-0.0914,-0.0952,-0.0956,-0.0981,-0.103,-0.105,-0.1067,-0.1108,-0.111,-0.1116,-0.1133,-0.1155,-0.116,-0.1163,-0.1178,-0.1183,-0.112,-0.112,-0.112,0,-0.0764,-0.0808,-0.082,-0.0851,-0.0869,-0.0873,-0.0905,-0.0923,-0.096,-0.0972,-0.0966,-0.1027,-0.1046,-0.1092,-0.1101,-0.1115,-0.1123,-0.1114,-0.1158,-0.1162,-0.1166,-0.118,-0.1186,-0.1121,-0.1121,-0.1121,-0.1121,0,-0.082,-0.085,-0.0872,-0.0907,-0.0927,-0.0958,-0.0975,-0.0994,-0.0999,-0.1012,-0.1051,-0.1074,-0.1106,-0.1117,-0.1123,-0.1163,-0.1159,-0.1155,-0.1144,-0.1171,-0.1185,-0.1191,-0.1122,-0.1121,-0.1121,-0.1121,0,0,-0.0861,-0.0901,-0.0909,-0.0925,-0.0956,-0.098,-0.101,-0.1042,-0.1058,-0.1082,-0.1108,-0.1149,-0.1145,-0.1163,-0.1171,-0.119,-0.1221,-0.1184,-0.1185,-0.1191,-0.1266,-0.127,-0.1276,-0.1222,-0.1223,-0.1224,-0.1264,0,-0.0902,-0.0957,-0.0968,-0.1015,-0.1043,-0.1046,-0.1073,-0.1095,-0.1107,-0.1132,-0.1146,-0.1175,-0.1167,-0.1179,-0.1198,-0.1214,-0.1237,-0.1211,-0.1246,-0.1247,-0.124,-0.1283,-0.1287,-0.1324,-0.1269,-0.127,-0.1271,0,-0.0957,-0.0982,-0.1033,-0.1059,-0.1071,-0.1095,-0.1124,-0.1148,-0.1172,-0.118,-0.12,-0.1205,-0.1236,-0.1222,-0.1265,-0.1246,-0.1261,-0.1271,-0.1273,-0.1277,-0.1262,-0.129,-0.1336,-0.1342,-0.1279,-0.1279,-0.1278,0,-0.0983,-0.1029,-0.1065,-0.1078,-0.1111,-0.1127,-0.1141,-0.1164,-0.1182,-0.1207,-0.1218,-0.1246,-0.1262,-0.1283,-0.1295,-0.1284,-0.1337,-0.1324,-0.1344,-0.1344,-0.1357,-0.1356,-0.1407,-0.1364,-0.1364,-0.1364,-0.1364,0,-0.1027,-0.1058,-0.1077,-0.11,-0.1134,-0.1145,-0.1178,-0.1192,-0.1212,-0.1237,-0.1241,-0.1264,-0.1278,-0.1302,-0.1312,-0.1346,-0.1352,-0.1359,-0.1362,-0.136,-0.1359,-0.1371,-0.1369,-0.1366,-0.1365,-0.1365,-0.1365,0,-0.1063,-0.1077,-0.1116,-0.1143,-0.115,-0.1174,-0.1196,-0.1218,-0.1229,-0.126,-0.1268,-0.1287,-0.1316,-0.1329,-0.1365,-0.1371,-0.141,-0.141,-0.1402,-0.1403,-0.1423,-0.1421,-0.1484,-0.1493,-0.1444,-0.1444,-0.1444,0,-0.1091,-0.1115,-0.1143,-0.116,-0.1174,-0.1201,-0.1219,-0.123,-0.1248,-0.1276,-0.1294,-0.1323,-0.1347,-0.1393,-0.1409,-0.1437,-0.1438,-0.1458,-0.1442,-0.1439,-0.1439,-0.1438,-0.144,-0.1461,-0.1462,-0.1462,-0.1463,0,-0.114,-0.1145,-0.117,-0.1198,-0.1219,-0.1241,-0.1263,-0.1276,-0.129,-0.131,-0.134,-0.1358,-0.1394,-0.1423,-0.1451,-0.1465,-0.1466,-0.1467,-0.1473,-0.1472,-0.1467,-0.147,-0.1411,-0.1466,-0.1466,-0.1465,-0.1465,-0.1465,-0.1173,-0.1194,-0.1217,-0.1245,-0.1262,-0.1282,-0.1303,-0.1316,-0.1341,-0.1372,-0.1376,-0.1408,-0.143,-0.1467,-0.1482,-0.1506,-0.1501,-0.151,-0.1513,-0.1515,-0.1516,-0.1461,-0.1511,-0.1511,-0.1511,-0.1511,-0.151,0,-0.1222,-0.1237,-0.1262,-0.1292,-0.1313,-0.1312,-0.1335,-0.1354,-0.1381,-0.1401,-0.1424,-0.1458,-0.1485,-0.1502,-0.153,-0.1546,-0.1547,-0.1552,-0.1552,-0.1555,-0.1519,-0.1511,-0.1551,-0.1551,-0.1551,-0.1551,-0.1551,-0.1551,-0.125,-0.1285,-0.1293,-0.1336,-0.135,-0.1381,-0.1395,-0.1413,-0.1429,-0.1466,-0.1488,-0.1499,-0.1518,-0.1547,-0.1571,-0.1575,-0.1586,-0.1592,-0.1596,-0.1562,-0.1558,-0.1554,-0.1546,-0.1593,-0.1593,-0.163,-0.1631,-0.1631]},{"header":{"parameterUnit":"m.s-1","parameterCategory":1,"la1":30.2991,"la2":30.254,"lo1":-89.0895,"lo2":-89.0444,"dy":0.0017,"dx":0.0017,"nx":28,"ny":28,"refTime":"2023-10-30T21:00:00:Z","depth":0,"parameterNumber":3,"parameterNumberName":"V-component_of_WINDS"},"data":[0,0,0,0,0,0,0,0,0,0,0,0,0,0,0,0,0,0,0,0,0,0,0,0,0,0,0,0,0,0,0,0,0,0,0,0,0,0,0,0,0,0,0,0,0,0,0,0,0,0,0,0,0,0,0,0,0,0,-8.1191,-8.1192,0,-8.1298,-8.1299,-8.13,-8.1233,-8.1229,-8.1226,-8.1223,-8.1326,-8.1331,-8.1337,0,0,0,0,0,0,0,0,0,0,0,0,0,-8.0922,-8.0927,-8.1191,-8.1192,-8.1193,-8.1297,-8.1299,-8.13,-8.1233,-8.1229,-8.1225,-8.1222,-8.1324,-8.1331,-8.1337,0,0,0,0,0,0,0,0,0,0,0,0,0,-8.1034,-8.0929,-8.119,-8.1172,-8.1172,-8.1297,-8.1299,-8.1301,-8.1234,-8.1229,-8.1224,-8.122,-8.1322,-8.133,-8.1338,-8.1485,0,0,-8.1364,-8.1368,0,0,0,0,0,0,0,0,-8.1028,-8.1044,-8.1174,-8.1174,-8.1174,-8.1247,-8.1242,-8.1362,-8.1235,-8.121,-8.1223,-8.1218,-8.1303,-8.1313,-8.1343,-8.149,-8.1494,-8.1365,-8.137,-8.1374,-8.1376,0,0,0,0,0,0,0,-8.102,-8.1039,-8.1233,-8.1176,-8.1176,-8.1157,-8.1168,-8.1264,-8.1281,-8.1212,-8.1207,-8.1221,-8.1302,-8.1335,-8.1345,-8.1496,-8.1365,-8.1372,-8.1378,-8.1381,-8.1768,-8.1773,0,0,0,0,0,0,-8.1015,-8.1033,-8.1229,-8.1236,-8.1088,-8.1166,-8.1178,-8.1228,-8.128,-8.1284,-8.1225,-8.1218,-8.1323,-8.1335,-8.1348,-8.1523,-8.1374,-8.1382,-8.1387,-8.1763,-8.1769,-8.1775,0,0,0,0,0,0,-8.1009,-8.1033,-8.1225,-8.1133,-8.1157,-8.1175,-8.1232,-8.1233,-8.1266,-8.129,-8.1292,-8.1256,-8.1319,-8.1336,-8.1452,-8.1526,-8.1386,-8.1393,-8.1757,-8.1765,-8.1772,-8.1875,0,0,0,0,0,0,-8.1002,-8.1031,-8.1089,-8.1135,-8.1162,-8.1329,-8.1237,-8.1238,-8.1281,-8.1273,-8.132,-8.1323,-8.1317,-8.144,-8.1461,-8.1535,-8.14,-8.175,-8.176,-8.177,-8.1865,-8.1885,-8.1903,0,0,0,0,0,-8.0993,-8.1112,-8.1092,-8.1116,-8.1234,-8.1334,-8.1349,-8.1341,-8.1288,-8.1344,-8.136,-8.1322,-8.1515,-8.1452,-8.1475,-8.1553,-8.1746,-8.1758,-8.1769,-8.1857,-8.1881,-8.1902,0,0,0,0,0,0,-8.1071,-8.1118,-8.1096,-8.1235,-8.1281,-8.1322,-8.1394,-8.1368,-8.1428,-8.1417,-8.1403,-8.1414,-8.1536,-8.1556,-8.1485,-8.1698,-8.1621,-8.1638,-8.168,-8.1704,-8.1722,-8.1715,-8.1407,0,0,0,0,0,-8.1105,-8.1184,-8.122,-8.1338,-8.1363,-8.1375,-8.1418,-8.1408,-8.1455,-8.1473,-8.1497,-8.1542,-8.1613,-8.1659,-8.1726,-8.1868,-8.1876,-8.1933,-8.1952,-8.1967,-8.1981,-8.2058,-8.2083,-8.1813,-8.1813,-8.1813,0,0,-8.1175,-8.121,-8.126,-8.1355,-8.139,-8.147,-8.1392,-8.148,-8.1539,-8.1486,-8.1597,-8.1617,-8.1666,-8.1796,-8.1854,-8.1816,-8.2058,-8.1982,-8.1994,-8.2,-8.2072,-8.2098,-8.212,-8.1821,-8.182,-8.1818,0,0,-8.1343,-8.1379,-8.1482,-8.1519,-8.1574,-8.1581,-8.1606,-8.1651,-8.1663,-8.1775,-8.1738,-8.1806,-8.1928,-8.1965,-8.1999,-8.2183,-8.2149,-8.2205,-8.2303,-8.2377,-8.2398,-8.2417,-8.2482,-8.2506,-8.2219,-8.2219,-8.2219,0,-8.1422,-8.1544,-8.1537,-8.1629,-8.1671,-8.163,-8.1733,-8.1769,-8.1841,-8.187,-8.1828,-8.1981,-8.2011,-8.2148,-8.2193,-8.2223,-8.2249,-8.2199,-8.2396,-8.2415,-8.2432,-8.2494,-8.2519,-8.2226,-8.2225,-8.2224,-8.2224,0,-8.1639,-8.1724,-8.18,-8.1875,-8.1925,-8.2022,-8.2028,-8.208,-8.2066,-8.2077,-8.2191,-8.2226,-8.2299,-8.2331,-8.2317,-8.2467,-8.2442,-8.2398,-8.2321,-8.2465,-8.2522,-8.2546,-8.2235,-8.2232,-8.2231,-8.2229,0,0,-8.1859,-8.1929,-8.1957,-8.1991,-8.2049,-8.2113,-8.2208,-8.2281,-8.2326,-8.2377,-8.2455,-8.256,-8.2521,-8.256,-8.255,-8.2616,-8.2758,-8.2564,-8.2564,-8.2598,-8.2924,-8.2957,-8.2984,-8.2737,-8.2741,-8.2745,-8.292,0,-8.203,-8.2199,-8.2195,-8.235,-8.2428,-8.239,-8.2473,-8.2516,-8.2529,-8.2595,-8.2608,-8.2683,-8.2625,-8.2649,-8.2712,-8.2728,-8.2824,-8.2715,-8.2807,-8.2811,-8.2796,-8.3015,-8.3049,-8.3213,-8.2943,-8.2947,-8.2949,0,-8.2253,-8.2315,-8.2479,-8.2527,-8.2559,-8.2633,-8.2701,-8.2765,-8.2813,-8.2818,-8.2863,-8.2843,-8.2936,-8.2858,-8.2986,-8.2912,-8.295,-8.2963,-8.2969,-8.2977,-8.2888,-8.3028,-8.3265,-8.3289,-8.2985,-8.2982,-8.298,0,-8.2397,-8.2521,-8.2635,-8.2665,-8.2723,-8.2776,-8.2802,-8.2846,-8.289,-8.2948,-8.2977,-8.3044,-8.3081,-8.3133,-8.3131,-8.3074,-8.3261,-8.3182,-8.3266,-8.3266,-8.3306,-8.3303,-8.3552,-8.3332,-8.3331,-8.3331,-8.333,0,-8.2589,-8.269,-8.2701,-8.2771,-8.2883,-8.2878,-8.2988,-8.3008,-8.3048,-8.3119,-8.309,-8.3157,-8.3151,-8.3219,-8.3217,-8.3324,-8.334,-8.3345,-8.3344,-8.3348,-8.3347,-8.3372,-8.336,-8.3337,-8.3336,-8.3334,-8.3333,0,-8.2768,-8.2779,-8.2901,-8.2947,-8.2961,-8.3042,-8.3079,-8.3145,-8.3156,-8.3247,-8.3268,-8.3285,-8.3363,-8.3367,-8.3456,-8.3455,-8.3584,-8.357,-8.3569,-8.3566,-8.365,-8.3642,-8.3922,-8.3958,-8.3715,-8.3717,-8.3719,0,-8.289,-8.2967,-8.3022,-8.307,-8.31,-8.3176,-8.3223,-8.322,-8.3268,-8.3329,-8.3387,-8.3463,-8.3524,-8.365,-8.3669,-8.3736,-8.3723,-8.3817,-8.3733,-8.3735,-8.3724,-8.3719,-8.3727,-8.3833,-8.3836,-8.3838,-8.384,0,-8.3104,-8.3106,-8.3176,-8.3248,-8.3304,-8.336,-8.3411,-8.3451,-8.3454,-8.351,-8.3591,-8.3639,-8.3731,-8.3806,-8.3873,-8.3896,-8.3868,-8.3866,-8.3889,-8.3894,-8.389,-8.3893,-8.3613,-8.3859,-8.3857,-8.3856,-8.3855,-8.3854,-8.3258,-8.3325,-8.3375,-8.3453,-8.3492,-8.3542,-8.3606,-8.3626,-8.3695,-8.3771,-8.3765,-8.3854,-8.3899,-8.3986,-8.4016,-8.4084,-8.4052,-8.4085,-8.4093,-8.4102,-8.4111,-8.388,-8.4096,-8.4096,-8.4095,-8.4095,-8.4094,0,-8.347,-8.3501,-8.3573,-8.3648,-8.3709,-8.368,-8.3736,-8.3788,-8.3869,-8.3914,-8.3976,-8.4068,-8.4141,-8.4166,-8.4237,-8.4287,-8.4276,-8.4305,-8.4301,-8.4307,-8.4136,-8.4109,-8.4313,-8.4313,-8.4313,-8.4313,-8.4313,-8.4313,-8.3588,-8.3701,-8.3709,-8.3841,-8.387,-8.396,-8.3994,-8.4038,-8.4075,-8.4181,-8.4243,-8.426,-8.4297,-8.437,-8.4435,-8.444,-8.4467,-8.4502,-8.4502,-8.4341,-8.4319,-8.4298,-8.4273,-8.4508,-8.4508,-8.4667,-8.4669,-8.467]}]]